Location: Wawayanda State Park
(41.1833°N, 74.4333°W)
Time: 18:00:06
(UTC-04:00)

Daily predictions for brighter satellites

Satellite Brightness Start Highest point End
(mag) Time Altitude Azimuth Time Altitude Azimuth Time Altitude Azimuth
deb Kosmos-1763 4.3 21:00:12 10° S 21:03:59 58° ESE 21:07:51 10° NNE
Cosmos 540 Rocket 3.7 20:59:03 10° NNW 21:04:15 78° WSW 21:09:23 10° SSE
deb Chang Zheng 4 3.7 21:00:19 10° NNE 21:04:35 54° E 21:08:49 10° S
GPS 2-04 Rocket1 3.9 21:02:15 10° WSW 21:06:11 33° SSW 21:10:02 10° SE
Cosmos 1500 Rocket 4.2 21:03:30 10° SSE 21:07:28 36° E 21:11:29 10° NNE
Cosmos 2221 3.8 21:07:16 10° NNW 21:11:18 41° W 21:15:19 10° SSW
ATLAS 5 CENTAUR R/B 3.1 21:09:36 10° SW 21:14:19 48° NW 21:19:25 10° NNE
Cosmos 1378 3.9 21:14:09 10° SSW 21:17:50 55° W 21:21:32 10° N
Cosmos 968 Rocket 3.5 21:13:58 10° S 21:19:05 69° ESE 21:24:17 10° NNE
Cosmos 1766 Rocket 4.4 21:15:17 10° SSW 21:19:38 55° W 21:23:59 10° N
AVUM R/B 4.3 21:27:01 14° ESE 21:27:27 14° ESE 21:28:52 10° ENE
Cosmos 332 Rocket 4.4 21:23:33 10° NNW 21:28:16 55° WSW 21:33:00 10° S
DELTA 2 R/B (1) 3.6 21:22:46 10° W 21:28:19 77° S 21:33:52 10° E
USA 245 4.3 21:27:20 11° ESE 21:28:58 17° ENE 21:30:43 10° NNE
ATLAS CENTAUR R/B 2.1 21:26:44 10° NW 21:31:11 52° WSW 21:35:13 10° SSE
Terra 3.9 21:30:21 10° E 21:32:36 13° ENE 21:34:51 10° NNE
CZ-4 SHROUD 3.4 21:30:32 12° SSE 21:33:22 56° ENE 21:36:28 10° N
Envisat 3.0 21:28:23 10° SSE 21:33:28 88° ENE 21:38:35 10° NNW
Cosmos 1553 Rocket 4.1 21:27:19 10° N 21:33:46 85° W 21:40:06 10° S
Cosmos 2266 Rocket 4.2 21:27:45 10° SSE 21:33:53 54° E 21:39:56 10° NNE
Cosmos 1515 Rocket 3.6 21:30:15 10° N 21:34:43 78° E 21:39:08 10° S
YAOGAN 6 3.3 21:34:09 13° SE 21:37:02 39° ENE 21:40:27 10° N
ARGOS 4.0 21:33:04 12° SE 21:37:34 37° ENE 21:42:29 10° N
Cosmos 2219 4.3 21:35:04 10° SSE 21:39:39 25° ESE 21:44:15 10° NE
MetOp-A 4.2 21:34:28 10° SSE 21:39:41 65° ENE 21:44:59 10° N
Nimbus 7 Rocket 4.4 21:37:22 10° NNE 21:43:15 87° WNW 21:49:06 10° SSW
ERS-1 Rocket 4.1 21:41:23 10° SSW 21:46:06 41° W 21:50:52 10° NNW
Cosmos 405 3.3 21:43:36 10° N 21:47:11 54° ENE 21:49:43 18° SSE
Cosmos 2322 4.2 21:41:45 10° NNW 21:47:18 48° ENE 21:51:39 16° SE
Cosmos 1441 Rocket 3.4 21:44:28 10° SSW 21:48:14 70° W 21:52:00 10° N
Meteor 2-20 Rocket 4.5 21:42:50 10° S 21:48:55 66° E 21:55:02 10° NNE
Cosmos 1777 Rocket 4.0 21:44:10 10° SSW 21:49:26 78° ESE 21:54:42 10° NNE
Cosmos 1939 Rocket 4.0 21:50:29 10° SSW 21:54:13 39° W 21:57:55 10° NNW
H-2A R/B 3.4 21:51:09 14° ESE 21:54:39 27° ENE 21:59:08 10° N
Cosmos 2322 Rocket 2.8 21:49:48 10° NNW 21:55:15 52° WSW 22:00:36 10° S
SPOT 5 3.1 21:57:16 11° S 22:01:33 61° W 22:06:13 10° NNW
Cosmos 1805 Rocket 4.2 22:00:35 20° SSE 22:03:10 38° E 22:07:18 10° NNE
SL-16 R/B 3.0 21:58:20 10° NW 22:03:46 48° WSW 22:08:55 11° S
Cosmos 1437 2.8 22:02:32 21° S 22:04:32 58° E 22:07:47 10° NNE
Cosmos 2151 2.9 22:01:49 14° S 22:05:25 71° E 22:09:37 10° NNE
Cosmos 1908 3.4 22:01:51 10° NNW 22:05:44 70° W 22:08:45 16° S
Cosmos 1726 3.6 22:03:04 10° NNE 22:06:12 24° ENE 22:07:30 20° ESE
SPOT 1/Viking Rocket 3.5 22:02:26 17° SSE 22:06:22 78° ENE 22:11:32 10° N
Cosmos 2360 Rocket 2.3 22:01:17 10° NNW 22:06:57 71° ENE 22:10:47 21° SE
NOSS 3-1 (C) 4.1 22:03:18 15° SSE 22:07:25 32° ESE 22:12:54 10° NE
NOAA 11 4.3 22:04:08 19° SSE 22:08:02 64° ENE 22:13:27 10° N
Nadezhda 2 Rocket 4.5 22:02:53 11° S 22:08:43 67° E 22:14:46 10° NNE
Cosmos 1151 Rocket 3.1 22:04:49 10° N 22:09:07 76° W 22:12:25 17° S
Cosmos 1680 Rocket 3.5 22:11:21 10° NNW 22:16:37 77° ENE 22:19:50 24° SSE
OE (NEXTSAT) 4.3 22:15:08 10° WNW 22:18:43 73° SSW 22:20:07 34° SE
H-2A R/B 4.3 22:15:52 10° SSW 22:19:25 23° W 22:23:00 10° NW
Cosmos 923 Rocket 4.0 22:14:13 10° NNW 22:19:26 77° WSW 22:22:50 22° S
Cosmos 1707 Rocket 3.8 22:17:02 10° N 22:21:18 53° E 22:23:15 29° SE
Cosmos 1666 Rocket 3.8 22:23:05 29° SSE 22:24:59 48° E 22:29:15 10° NNE
Cosmos 1437 Rocket 4.2 22:21:48 10° NNW 22:25:12 31° W 22:28:15 12° SSW
Cosmos 1674 4.1 22:27:00 10° SW 22:30:32 36° WNW 22:34:08 10° N
Cosmos 2227 Rocket 3.7 22:31:10 17° ESE 22:31:26 17° E 22:34:56 10° ENE
Cosmos 1898 Rocket 4.0 22:29:54 28° SE 22:31:47 38° ESE 22:36:34 10° NE
Cosmos 2333 Rocket 3.8 22:29:11 10° N 22:33:49 24° NE 22:37:13 15° E
CZ-4B R/B 4.1 22:29:05 10° N 22:34:17 60° WNW 22:39:25 10° SSW
CZ-4C R/B 2.9 22:34:28 42° SSE 22:35:32 79° ENE 22:39:01 10° N
Cosmos 1300 2.6 22:34:09 10° N 22:38:00 82° E 22:39:16 41° SSE
SL-08 RB Rocket 3.8 22:36:33 28° S 22:38:53 71° WSW 22:43:22 10° NNW
Cosmos 2058 3.0 22:39:47 24° SSW 22:42:10 72° W 22:46:17 10° N
Cosmos 1626 3.9 22:44:32 19° E 22:44:32 19° E 22:46:56 10° NE
COSMOS 2428 2.7 22:40:05 10° NNW 22:45:46 71° ENE 22:48:24 33° SE
Meteor 1-4 Rocket 2.9 22:44:17 10° N 22:47:59 49° ENE 22:48:33 45° ESE
DELTA 2 DEB (DPAF) 4.3 22:49:23 33° S 22:51:19 68° WSW 22:55:49 10° NNW
Cosmos 2242 Rocket 3.6 22:48:14 10° N 22:52:41 69° E 22:54:01 43° SSE
Landsat 7 3.9 22:51:46 33° S 22:53:52 72° WSW 22:58:38 10° NNW
SL-23 DEB 3.5 22:50:18 10° WNW 22:54:41 72° SW 22:55:10 61° SSE
USA 32 4.0 22:50:59 10° N 22:56:17 79° E 22:58:25 37° SSE
Cosmos 2297 Rocket 3.6 22:59:14 20° E 22:59:14 20° E 23:03:10 10° NE
Spot 4 3.9 22:57:34 41° SE 22:59:13 71° ENE 23:04:03 10° N
Cosmos 1455 3.2 22:57:42 10° NNE 23:01:09 32° ENE 23:01:18 32° E
IGS 5A 3.4 23:00:13 50° SSE 23:01:15 87° ENE 23:05:27 10° NNW
SeaSat 1 3.5 23:01:34 25° E 23:03:38 35° NE 23:08:06 10° N
Cosmos 2237 4.3 23:01:44 10° NNW 23:07:28 74° WSW 23:09:42 38° S
NOSS 3-1 (A) 3.3 23:05:11 24° SSW 23:08:49 70° ESE 23:15:18 10° NE
Terra 1.9 23:08:07 41° S 23:09:44 71° WSW 23:14:30 10° NNW
Cosmos 2219 Rocket 2.5 23:05:10 10° NNW 23:10:41 56° ENE 23:12:41 37° ESE
DELTA 2 R/B (1) 3.8 23:09:13 10° W 23:14:34 50° SSW 23:15:33 45° SSE
SL-14 R/B 4.3 23:13:40 28° SW 23:15:15 42° WNW 23:19:04 10° N
Cosmos 292 Rocket 3.7 23:10:46 10° NNW 23:15:33 75° ENE 23:16:37 52° SE
Cosmos 1703 3.2 23:16:04 60° SSW 23:16:40 77° W 23:20:36 10° N
Cosmos 2298 Rocket 4.3 23:15:36 23° SSW 23:18:57 68° WNW 23:24:16 10° NNE
Cosmos 1862 Rocket 3.6 23:15:04 10° N 23:19:24 59° E 23:19:53 55° ESE
CARTOSAT-1 4.2 23:20:21 37° SW 23:21:28 47° W 23:25:39 10° NNW
GEOS 3 Rocket 4.4 23:19:08 27° E 23:21:32 44° NE 23:26:27 10° NNW
Cosmos 1980 4.2 23:16:52 10° NNW 23:22:23 51° ENE 23:24:17 36° ESE
Cosmos 2219 4.1 23:17:57 10° SW 23:23:28 47° WNW 23:29:02 10° NNE
Cosmos 1271 Rocket 3.0 23:22:24 10° NNW 23:26:08 54° W 23:26:28 52° WSW
Cosmos 1346 4.4 23:28:52 37° NNE 23:28:52 37° NNE 23:30:52 10° NNE
Cosmos 1633 Rocket 4.2 23:26:22 25° SW 23:28:22 39° WNW 23:32:29 10° N
Cosmos 2333 4.3 23:23:50 10° NNW 23:29:31 66° WSW 23:31:14 44° S
Sich 1 4.4 23:28:02 22° SW 23:30:13 35° WNW 23:34:18 10° N
ATLAS 2AS CENTAUR R/B 3.3 23:29:35 38° SSE 23:31:35 45° ESE 23:39:03 10° NE
H-2A R/B 3.0 23:31:47 29° SW 23:33:50 40° W 23:38:54 10° NNW
Cosmos 1241 Rocket 4.5 23:33:02 46° SSE 23:34:29 56° ESE 23:40:35 10° NE
Cosmos 2237 Rocket 2.4 23:30:31 10° NNW 23:36:11 61° ENE 23:37:51 43° ESE
COS B Rocket 4.3 23:33:21 10° NNE 23:36:03 33° ENE 23:36:03 33° ENE
Cosmos 1937 Rocket 3.6 23:34:59 39° SSW 23:36:58 76° WNW 23:42:12 10° NNE
Cosmos 2082 3.8 23:36:11 50° SSE 23:37:17 60° ESE 23:42:55 10° NNE
Cosmos 1726 4.2 23:38:37 10° NW 23:41:26 20° W 23:42:11 19° WSW
Nadezhda 1 Rocket 4.1 23:39:31 10° NNW 23:45:31 63° W 23:47:40 40° SSW
ALOS 2 3.8 23:45:44 30° E 23:46:10 31° ENE 23:50:01 10° N
Cosmos 1869 Rocket 4.5 23:47:19 36° E 23:47:19 36° E 23:51:10 10° NNE
Cosmos 192 4.4 23:43:48 10° NNW 23:48:41 64° ENE 23:49:22 57° ESE
Cosmos 2360 Rocket 4.3 23:47:02 10° WNW 23:50:16 16° W 23:52:34 13° SW
Cosmos 990 Rocket 4.0 23:53:09 49° SW 23:54:31 74° WNW 23:59:40 10° NNE
